Skip Page Navigation
NASA JPL Caltech
NASA Logo - Jet Propulsion Laboratory + View the NASA Portal
+ Center for Near-Earth Object Studies
JPL Home Earth Solar System Stars & Galaxies Technology
JPL Solar System Dynamics
BODIES ORBITS EPHEMERIDES TOOLS PHYSICAL DATA DISCOVERY FAQ SITE MAP
JPL Small-Body Database Browser
Search: [ help ]  
118702 (2000 OM67)
Classification: TransNeptunian Object          SPK-ID: 2118702
Ephemeris | Orbit Diagram | Orbital Elements | Physical Parameters | Discovery Circumstances ]

[ show orbit diagram ]
Orbital Elements at Epoch 2459200.5 (2020-Dec-17.0) TDB
Reference: JPL 10 (heliocentric ecliptic J2000)
 Element Value Uncertainty (1-sigma)   Units 
e .6081570311342133 0.00047747  
a 100.0408184648242 0.12788 au
q 39.20029131501992 0.0042603 au
i 23.30479618981146 0.00084366 deg
node 326.9832583724546 0.00057561 deg
peri 349.0098505202789 0.021947 deg
M 11.43818943846102 0.0224 deg
tp 2447588.178122152020
(1989-Mar-02.67812215)
3.923 TDB
period 365480.5595340568
1000.63
700.75
1.919
d
yr
n .0009850045114819684 1.8886e-06 deg/d
Q 160.8813456146284 0.20564 au
  Orbit Determination Parameters
   # obs. used (total)      21  
   data-arc span      2916 days (7.98 yr)  
   first obs. used      2000-07-31  
   last obs. used      2008-07-25  
   planetary ephem.      DE441  
   SB-pert. ephem.      SB441-N16  
   condition code      4  
   norm. resid. RMS      .20272  
   source      ORB  
   producer      Otto Matic  
   solution date      2021-Apr-13 16:58:28  

Additional Information
 Earth MOID = 38.1879 au 
 Jupiter MOID = 34.1503 au 
 T_jup = 6.445 
[ show covariance matrix ]

Ephemeris | Orbit Diagram | Orbital Elements | Physical Parameters | Discovery Circumstances ]

Physical Parameter Table
Parameter Symbol Value Units Sigma Reference Notes
absolute magnitude H 6.8   n/a MPO157301  

118702 (2000 OM67)          Discovered 2000-Jul-31 by Buie, M. W., Kern, S. D. at Cerro Tololo
Reference: 20051116/Numbers.arcLast Updated: 2005-11-21
Ephemeris | Orbit Diagram | Orbital Elements | Physical Parameters | Discovery Circumstances ]
ABOUT SSD CREDITS/AWARDS PRIVACY/COPYRIGHT GLOSSARY LINKS
FirstGov 2021-May-12 03:26 UT
(server date/time)  
NASA Home Page
Site Manager:   Ryan S. Park
Webmaster  Alan B. Chamberlin